Location: ??????????
(54.8537°N, 38.8755°E)
Time: 23:55:46
(UTC+00:00)

Tiros 1 despin weight - Pass Details

Date: 14 September 2024
Orbit: 573 x 614 km, 48.2° (Epoch: 07 October)

Event Time Altitude Azimuth Distance (km) Brightness Sun altitude
Rises 07:01:10 0° 269° (W) 2,893 ? 31.2°
Reaches altitude 10° 07:05:08 10° 235° (SW) 1,977 ? 31.6°
Maximum altitude 07:06:29 11° 218° (SW) 1,894 ? 31.7°
Drops below altitude 10° 07:07:50 10° 200° (SSW) 1,968 ? 31.8°
Sets 07:11:45 0° 166° (SSE) 2,857 ? 32.2°
